Miscellaneous Local Product
Issued by NWS North Platte, NE

Home | Current Version | Previous Version | Text Only | Print | Product List | Glossary On
Versions: 1 2 3 4 5 6 7 8 9 10 11 12 13 14 15 16 17 18 19 20 21 22 23 24 25 26 27 28 29 30 31 32 33 34 35 36 37 38 39 40 41 42 43 44 45 46 47 48 49 50
000
AXUS43 KLBF 261210
MISLBF


WESTERN AND NORTH CENTRAL NEBRASKA HOURLY WEATHER ROUNDUP
NATIONAL WEATHER SERVICE NORTH PLATTE NE
700 AM CDT SUN JUL 26 2015

***STATIONS NOT REPORTING VARIABLES SUCH AS SKY/WEATHER OR
PRESSURE ARE PROVIDED BY THE NEBRASKA DEPARTMENT OF
ROADS...RAWS...AND APRS NETWORKS...AND ARE NOT UNDER
NATIONAL WEATHER SERVICE QUALITY CONTROL***

...OBSERVATIONS IN AND NEAR THE EASTERN PANHANDLE OF NEBRASKA...

CITY           SKY/WX    TMP DP  RH WIND       PRES   REMARKS
PINE RIDGE     PTCLDY    66  63  90 CALM      29.94S
CHADRON        PTCLDY    59  57  93 W5        29.93F
ALLIANCE       PTCLDY    59  58  96 E7        29.99R FOG
SIDNEY         CLEAR     65  65 100 SW8       30.03R FOG
BIG SPRINGS      N/A     65  64  96 CALM        N/A
$$

...OBSERVATIONS IN NORTH CENTRAL NEBRASKA...

CITY           SKY/WX    TMP DP  RH WIND       PRES   REMARKS
VALENTINE      CLEAR     62  60  93 W5        29.92S
THEDFORD       CLEAR     69  68  96 W3        29.95S FOG
AINSWORTH      CLEAR     64  64 100 SW5       29.92S
O`NEILL        CLEAR     67  66  98 SW5       29.90R FOG
ORD            PTCLDY    65  64  97 CALM      29.89R FOG
BROKEN BOW     CLEAR     66  64  93 N3        29.92S FOG
SPRINGVIEW       N/A     66  64  95 CALM        N/A
CHAMBERS         N/A     68  67  96 S3          N/A
EWING            N/A     66  64  95 CALM        N/A
$$

...OBSERVATIONS IN SOUTHWEST NEBRASKA AND FAR NORTHEAST COLORADO...

CITY           SKY/WX    TMP DP  RH WIND       PRES   REMARKS
WRAY           FAIR     N/A N/A N/A W5        29.97S FOG
HOLYOKE        FOG       63  61  94 CALM      29.98S VSB<1/4
IMPERIAL       FOG       64  64 100 CALM      29.96R VSB 1/4
OGALLALA       FOG       64  64  99 CALM      29.96S VSB<1/4
NORTH PLATTE   MOCLDY    64  64 100 E5        29.96R FOG
MCCOOK         FOG       63  63 100 CALM      29.94R VSB<1/4
LEXINGTON      FOG       66  65  97 CALM      29.93R VSB 1/4
PAXTON           N/A     67  65  94 CALM        N/A
BRADY            N/A     70  68  94 CALM        N/A
CALLAWAY         N/A     70  69  98 N3          N/A
$$

...NORTH PLATTE AREA...

CITY           SKY/WX    TMP DP  RH WIND       PRES   REMARKS
AIRPORT        MOCLDY    64  64 100 E5        29.96R FOG
DOWNTOWN         N/A     68  67  96 CALM        N/A
HILLCREST        N/A     67  67 100 NE5         N/A
$$

...SOME WEATHER OBSERVATIONS FROM AROUND THE REGION...

CITY           SKY/WX    TMP DP  RH WIND       PRES   REMARKS
DENVER         PTCLDY    68  52  56 SW9       30.09S
LARAMIE        CLEAR     47  38  71 SE5       30.22R
CHEYENNE       CLEAR     56  46  69 W7        30.14R
SCOTTSBLUFF    PTCLDY    65  61  87 E5        29.98R
RAPID CITY     PTCLDY    65  59  81 W3        29.95S
PIERRE         CLEAR     57  56  96 NE3       29.89R
WINNER         FAIR      64  61  90 CALM      29.91R
SIOUX FALLS    MOCLDY    67  65  93 NW5       29.89R
OMAHA          MOCLDY    70  68  93 CALM      29.87F
GRAND ISLAND   FOG       70  70 100 CALM      29.91R VSB<1/4
KANSAS CITY    LGT RAIN  75  72  90 W6        29.91R
WICHITA        CLOUDY    79  66  64 SE5       29.88R
HAYS           PTCLDY    72  61  68 NW6       29.90S
LIBERAL        MOCLDY    73  64  73 SE12      29.96S
GOODLAND       CLEAR     68  65  90 SW5       29.97S
$$



USA.gov is the U.S. government's official web portal to all federal, state and local government web resources and services.